Location: Colorado Springs
(38.8340°N, 104.8210°W)
Time: 03:15:13
(UTC-06:00)

Envisat - Pass Details

Date: 07 October 2017
Orbit: 764 x 766 km, 98.2° (Epoch: 18 October)

Event Time Altitude Azimuth Distance (km) Brightness Sun altitude
Exits shadow 19:18:24 12° 75° (ENE) 2,196 4.7 -9.8°
Maximum altitude 19:19:34 12° 61° (ENE) 2,141 4.8 -10.0°
Drops below altitude 10° 19:21:34 10° 37° (NE) 2,308 5.1 -10.4°
Sets 19:25:18 0° 9° (N) 3,239 6.2 -11.2°
